Content
SEND FEEDBACK

Daily
Averages
Monthly
Summary
United States of America

SCENIC HOT SPRINGS, WASHINGTON


Home > North America > United States > Washington
Elevation: 2220 feet     Latitude: 47 42N     Longitude: 121 09W

WEATHER
 
SELECT A DAY
Number of Records: 292,850;   Date Range: 1/1/95 - 7/27/14
 
SHARE

PRINT THIS DATA

[ ← Previous Day ]
WEATHER ALMANAC - FEBRUARY 13, 2013
[ Next Day → ]
[ °C ]   °F
Weather ElementAverageHighLow
Temperature30.4 °F33.8 °F (1:19 am)28.4 °F (10:07 am)
Dewpoint28.6 °F32 °F (1:19 am)26.6 °F (10:07 am)
Humidity92.9 %100 % (10:29 am)87 % (7:22 am)
Barometer30.29 in30.36 in (1:56 pm)30.20 in (2:19 am)
Wind Speed11 mph18.4 mph (8:43 am)
Wind Gust29.9 mph (7:22 am)
Weather ElementAverage
Visibility2.4 mi
Wind DirectionWSW (254.5 °)

Weather ElementTotal
Precipitation0.12 in
Heating Degree Days33.9 (Base 65)
Averaged from 22 records on February 13, 2013
WEATHER CONDITIONS BREAKOUT
WIND DIRECTION BREAKOUT
WEATHER BY HOUR - FEBRUARY 13, 2013
[ °C ]   °F
Local TimeTemperatureDewpointHumidityBarometerVisibilityWind DirectionWind SpeedGust SpeedPrecipitationEventsConditions
1:19 AM33.8 °F32.0 °F93 %30.21 in0.8 miWest (270°)13.8 mph26.5 mph0.03 inRainLight Rain
2:19 AM33.8 °F32.0 °F93 %30.20 in0.5 miWSW (250°)10.4 mph20.7 mph0.03 inFogFog
6:56 AM32.0 °F28.9 °F88 %30.30 in10.0 miWest (270°)15.0 mph27.6 mph0.01 inOvercast
7:22 AM32.0 °F28.4 °F87 %30.24 in10.0 miWest (270°)12.7 mph29.9 mphOvercast
8:38 AM30.2 °F28.4 °F93 %30.26 in2.0 miWest (270°)13.8 mph28.8 mphOvercast
8:43 AM30.2 °F28.4 °F93 %30.26 in1.8 miWest (280°)18.4 mph29.9 mphOvercast
8:56 AM30.0 °F28.0 °F92 %30.34 in0.5 miWest (270°)11.5 mph24.2 mph0.00 inFog-SnowLight Snow
10:07 AM28.4 °F26.6 °F93 %30.28 in1.5 miWest (280°)15.0 mph26.5 mphOvercast
10:09 AM28.4 °F26.6 °F93 %30.28 in4.0 miWest (270°)13.8 mph27.6 mphOvercast
10:29 AM28.4 °F28.4 °F100 %30.28 in10.0 miWest (260°)11.5 mph27.6 mphOvercast
1:39 PM30.2 °F28.4 °F93 %30.28 in1.2 miWest (270°)10.4 mph23.0 mph0.00 inSnowLight Snow
1:44 PM30.2 °F28.4 °F93 %30.28 in0.8 miWest (270°)8.1 mph19.6 mph0.00 inSnowLight Snow
1:53 PM30.2 °F28.4 °F93 %30.28 in0.5 miWest (270°)9.2 mph18.4 mph0.00 inFog-SnowLight Snow
1:56 PM30.0 °F28.9 °F96 %30.36 in0.5 miWest (270°)9.2 mph18.4 mph0.00 inFog-SnowLight Snow
2:23 PM30.2 °F28.4 °F93 %30.29 in0.2 miWest (260°)10.4 mph21.9 mph0.00 inFog-SnowLight Snow
3:14 PM30.2 °F28.4 °F93 %30.30 in0.2 miWest (270°)9.2 mph18.4 mph0.01 inFog-SnowLight Snow
5:34 PM30.2 °F28.4 °F93 %30.31 in1.0 miWest (260°)8.1 mph0.01 inSnowLight Snow
5:38 PM30.2 °F28.4 °F93 %30.31 in1.5 miWest (260°)9.2 mph0.01 inSnowLight Snow
5:43 PM30.2 °F28.4 °F93 %30.30 in3.0 miWSW (250°)8.1 mph0.01 inOvercast
6:03 PM30.2 °F28.4 °F93 %30.31 in0.8 miWest (260°)8.1 mph0.00 inSnowLight Snow
6:21 PM30.2 °F28.4 °F93 %30.31 in0.2 miWest (270°)8.1 mph0.01 inFog-SnowLight Snow
7:41 PM30.2 °F28.4 °F93 %30.33 in1.0 miVariable6.9 mph0.00 inOvercast
Hourly data recorded from KSMP, located miles away from Scenic Hot Springs, Washington







STORIES FROM OUR PARTNERS